Location: High Cliff State Park
(44.1557°N, 88.2948°W)
Time: 03:48:40
(UTC-05:00)

Amateur Radio Satellites - All Passes

Search period start: 25 April 2015 03:18
Search period end: 26 April 2015 03:18
Location: High Cliff State Park, 44.1557°N, 88.2948°W

Satellite Date Start Highest point End Downlink Frequencies (MHz)
Time Altitude Azimuth
STARS 25 Apr 03:23:27 03:27:48 66° 258° (WSW) 03:32:12 437.465
CUSAT 1 25 Apr 03:25:05 03:31:42 35° 69° (ENE) 03:39:10 437.405
Cosmos 2504 25 Apr 03:28:52 03:31:42 12° 286° (WNW) 03:33:55 435.465 / 435.565
Oscar 19 25 Apr 03:37:52 03:42:18 28° 295° (WNW) 03:46:38 437.125/150
JAS-2 25 Apr 03:48:23 03:52:45 20° 86° (E) 03:57:00 435.910
BEESAT 3 25 Apr 03:52:35 03:56:37 55° 309° (NW) 04:00:41 437.485
BEESAT 2 25 Apr 03:52:52 03:56:58 65° 307° (NW) 04:01:07 435.950
DANDE 25 Apr 03:58:57 04:05:50 47° 73° (ENE) 04:13:56 436.750
Cosmos 2499 25 Apr 04:03:55 04:07:51 15° 53° (NE) 04:12:02 435.465 / 435.565
KKS-1 25 Apr 04:05:15 04:08:12 17° 270° (W) 04:11:01 437.445
ITAMSAT 1 25 Apr 04:10:24 04:15:18 42° 291° (WNW) 04:20:08 435.822/435.867
M-CUBED/EXP-1 PRIME 25 Apr 04:14:32 04:15:23 11° 52° (NE) 04:16:30 437.505
MOZHAYETS 4 25 Apr 04:24:27 04:29:00 57° 73° (ENE) 04:33:35
Gurwin Techsat 1B 25 Apr 04:36:02 04:40:41 31° 294° (WNW) 04:45:14 435.225
HORYU 2 25 Apr 04:37:32 04:42:04 77° 104° (ESE) 04:46:33 437.375
GONETS M04 25 Apr 04:39:25 04:48:12 67° 267° (W) 04:56:53
AIST 2 25 Apr 04:48:42 04:52:54 56° 308° (NW) 04:57:09 435.215
AUBIESAT-1 25 Apr 04:54:35 04:58:06 21° 59° (ENE) 05:01:44 437.475
AO-7 25 Apr 05:04:35 05:12:53 69° 105° (ESE) 05:21:12 29.400- 29.500
CUSAT 1 25 Apr 05:07:27 05:14:44 58° 265° (W) 05:22:49 437.405
PRISM 25 Apr 05:17:12 05:17:57 11° 61° (ENE) 05:18:56 437.425
JAS-2 25 Apr 05:32:13 05:38:42 66° 289° (WNW) 05:44:23 435.910
BEESAT 2 25 Apr 05:34:11 05:35:56 12° 328° (NNW) 05:37:33 435.950
BEESAT 3 25 Apr 05:34:29 05:35:34 11° 329° (NNW) 05:36:32 437.485
DANDE 25 Apr 05:42:17 05:49:08 42° 267° (W) 05:56:51 436.750
M-CUBED/EXP-1 PRIME 25 Apr 05:44:41 05:49:27 66° 68° (ENE) 05:54:16 437.505
STRAND 1 25 Apr 05:49:51 05:53:40 22° 63° (ENE) 05:57:37 437.568
Cosmos 2499 25 Apr 05:54:59 06:02:54 73° 79° (ENE) 06:10:13 435.465 / 435.565
CUBESAT XI-V 25 Apr 05:59:10 06:03:33 45° 72° (ENE) 06:07:59 437.345
MOZHAYETS 4 25 Apr 06:03:45 06:06:40 16° 271° (W) 06:09:25
HORYU 2 25 Apr 06:16:01 06:18:09 13° 299° (WNW) 06:20:06 437.375
AUBIESAT-1 25 Apr 06:27:51 06:32:32 55° 255° (WSW) 06:37:16 437.475
AIST 2 25 Apr 06:30:59 06:32:29 11° 330° (NNW) 06:33:51 435.215
GONETS M04 25 Apr 06:39:40 06:43:30 13° 286° (WNW) 06:46:40
PRISM 25 Apr 06:48:41 06:52:52 83° 256° (WSW) 06:57:03 437.425
CUSAT 1 25 Apr 06:54:08 06:56:31 11° 280° (W) 06:58:20 437.405
CUTE-I 25 Apr 06:54:48 06:59:54 46° 98° (E) 07:05:02 437.470
AO-7 25 Apr 06:58:07 07:05:11 31° 304° (NW) 07:12:06 29.400- 29.500
Cubesat XI-IV 25 Apr 07:04:10 07:09:24 57° 100° (E) 07:14:39 437.490
JAS-2 25 Apr 07:19:45 07:22:28 13° 309° (NW) 07:24:45 435.910
M-CUBED/EXP-1 PRIME 25 Apr 07:21:39 07:24:44 16° 266° (W) 07:27:39 437.505
O/OREOS (USA 219) 25 Apr 07:23:36 07:27:09 23° 54° (NE) 07:30:44 437.305
STRAND 1 25 Apr 07:27:36 07:32:34 51° 260° (W) 07:37:34 437.568
CUBESAT XI-V 25 Apr 07:37:49 07:41:16 20° 269° (W) 07:44:36 437.345
Cosmos 2499 25 Apr 07:49:31 07:55:13 22° 280° (W) 08:00:22 435.465 / 435.565
Cosmos 2491 25 Apr 08:20:13 08:25:54 19° 56° (ENE) 08:32:01 435.465 / 435.565
CANX-2 25 Apr 08:24:08 08:25:30 12° 87° (E) 08:27:08 2200.000
CUTE 1.7 + AOD 2 25 Apr 08:32:51 08:34:49 13° 88° (E) 08:37:00 437.475
CUTE-I 25 Apr 08:35:25 08:39:46 26° 296° (WNW) 08:44:02 437.470
GOMX 1 25 Apr 08:39:02 08:43:19 27° 93° (E) 08:47:52 467.674
PCSat 25 Apr 08:44:49 08:50:10 67° 117° (ESE) 08:55:35 145.827
Cubesat XI-IV 25 Apr 08:45:08 08:49:09 22° 298° (WNW) 08:53:03 437.490
BRITE-PL 25 Apr 08:48:15 08:53:08 47° 98° (E) 08:58:22 437.365/2234.400
O/OREOS (USA 219) 25 Apr 09:02:31 09:06:46 41° 253° (WSW) 09:10:58 437.305
HO-68 25 Apr 09:17:26 09:24:19 47° 99° (E) 09:31:12 435.675
ANTELSAT 25 Apr 09:17:35 09:20:02 15° 62° (ENE) 09:22:43 437.575/2403.000
DOVE 4 25 Apr 09:17:53 09:22:42 42° 97° (E) 09:27:42 437.250
COMPASS 1 25 Apr 09:25:42 09:29:30 32° 96° (E) 09:33:18 437.405
YUBILEINY 25 Apr 09:30:31 09:35:42 18° 78° (ENE) 09:41:19 435.215
Oscar 11 25 Apr 09:37:22 09:40:23 19° 91° (E) 09:43:30 145.826/435.025
ZACube-1 25 Apr 09:38:09 09:39:29 11° 86° (E) 09:41:07 437.345
DELFI C3 25 Apr 09:48:10 09:50:49 17° 91° (E) 09:53:33 145.870
SEEDS 25 Apr 09:50:07 09:54:23 76° 102° (ESE) 09:58:36 437.485
QB50P2 25 Apr 09:56:34 09:59:13 17° 64° (ENE) 10:02:00 145.880/145.840
CANX-2 25 Apr 09:57:43 10:02:01 68° 285° (WNW) 10:06:14 2200.000
CINEMA 3 25 Apr 10:05:57 10:10:54 63° 101° (E) 10:15:54 145.822/145.860
TIGRISAT 25 Apr 10:05:59 10:10:12 40° 70° (ENE) 10:14:33 435.000
CUTE 1.7 + AOD 2 25 Apr 10:06:58 10:11:13 59° 286° (WNW) 10:15:23 437.475
AAUSAT CUBESAT 2 25 Apr 10:08:28 10:12:42 85° 102° (ESE) 10:16:52 437.432
CUBEBUG 2 25 Apr 10:08:48 10:13:12 36° 96° (E) 10:17:37 437.445
UNISAT 6 25 Apr 10:09:58 10:14:16 45° 71° (ENE) 10:18:44 437.425
DX 1 25 Apr 10:10:47 10:12:57 14° 89° (E) 10:15:20 434.975-435.025
NANOSAT C BR1 25 Apr 10:14:15 10:17:36 24° 67° (ENE) 10:21:04 145.865
Cosmos 2491 25 Apr 10:15:36 10:24:30 82° 81° (E) 10:33:22 435.465 / 435.565
GOMX 1 25 Apr 10:16:46 10:21:33 42° 289° (WNW) 10:26:33 467.674
POPSAT HIP 1 25 Apr 10:17:06 10:20:34 26° 67° (ENE) 10:24:06 437.405
BRITE-PL 25 Apr 10:27:23 10:31:27 25° 293° (WNW) 10:35:38 437.365/2234.400
PCSat 25 Apr 10:29:43 10:34:06 24° 318° (NW) 10:38:26 145.827
BEESAT 3 25 Apr 10:32:43 10:35:46 20° 40° (NE) 10:38:52 437.485
BEESAT 2 25 Apr 10:33:36 10:36:28 18° 38° (NE) 10:39:23 435.950
UWE-3 25 Apr 10:35:49 10:40:28 56° 100° (E) 10:45:04 435.000/436.395/437.385
50 SAT 25 Apr 10:37:24 10:39:07 13° 88° (E) 10:41:02 437.505
BUGSAT 1 25 Apr 10:44:06 10:47:41 33° 70° (ENE) 10:51:21 437.445
POLYITAN 1 25 Apr 10:45:53 10:49:59 52° 73° (ENE) 10:54:09 437.675
FUNcube-1 25 Apr 10:46:42 10:51:15 57° 100° (E) 10:55:46 145.935
DUCHIFAT 1 25 Apr 10:47:31 10:51:34 52° 73° (ENE) 10:55:42 145.980
ANTELSAT 25 Apr 10:51:47 10:56:18 69° 258° (WSW) 11:00:57 437.575/2403.000
UKube-1 25 Apr 10:53:11 10:57:11 36° 97° (E) 11:01:12 .
DOVE 4 25 Apr 10:56:00 11:00:17 27° 293° (WNW) 11:04:36 437.250
COMPASS 1 25 Apr 11:01:39 11:05:03 23° 293° (WNW) 11:08:22 437.405
QB50P1 25 Apr 11:04:33 11:08:46 83° 76° (ENE) 11:13:01 145.935-145.965
HO-68 25 Apr 11:05:25 11:11:57 38° 298° (WNW) 11:18:20 435.675
HUMSAT D 25 Apr 11:10:45 11:15:00 50° 99° (E) 11:19:12 437.325/437.525
ZACube-1 25 Apr 11:11:52 11:16:31 79° 285° (WNW) 11:21:06 437.345
Oscar 11 25 Apr 11:12:40 11:16:49 43° 288° (WNW) 11:20:54 145.826/435.025
VELOX 1 25 Apr 11:14:52 11:18:49 31° 96° (E) 11:22:47 145.980
CUBEBUG 1 25 Apr 11:22:08 11:25:08 18° 91° (E) 11:28:16 437.445
DELFI C3 25 Apr 11:22:22 11:26:11 40° 289° (WNW) 11:29:57 145.870
YUBILEINY 25 Apr 11:22:31 11:31:21 85° 97° (E) 11:40:13 435.215
SEEDS 25 Apr 11:28:02 11:29:39 12° 298° (WNW) 11:31:03 437.485
QB50P2 25 Apr 11:30:40 11:34:46 49° 261° (W) 11:38:55 145.880/145.840
AIST 2 25 Apr 11:31:08 11:34:28 22° 41° (NE) 11:37:48 435.215
AISAT 25 Apr 11:32:20 11:36:40 49° 99° (E) 11:41:01 437.250
SO-50 25 Apr 11:34:28 11:38:41 35° 116° (ESE) 11:43:05 436.795
Oscar 19 25 Apr 11:42:29 11:43:02 10° 56° (NE) 11:43:53 437.125/150
TIGRISAT 25 Apr 11:43:35 11:47:09 22° 268° (W) 11:50:41 435.000
CINEMA 3 25 Apr 11:44:16 11:47:40 18° 296° (WNW) 11:50:57 145.822/145.860
DX 1 25 Apr 11:45:21 11:49:39 59° 287° (WNW) 11:53:57 434.975-435.025
CUBEBUG 2 25 Apr 11:45:44 11:49:46 27° 293° (WNW) 11:53:42 437.445
AAUSAT CUBESAT 2 25 Apr 11:46:59 11:47:43 10° 299° (WNW) 11:48:14 437.432
UNISAT 6 25 Apr 11:47:58 11:51:20 20° 270° (W) 11:54:39 437.425
NANOSAT C BR1 25 Apr 11:49:33 11:53:20 32° 264° (W) 11:57:08 145.865
POPSAT HIP 1 25 Apr 11:52:38 11:56:22 30° 265° (W) 12:00:05 437.405
AIST 1 25 Apr 12:01:16 12:05:33 75° 81° (E) 12:09:49
ESTCUBE 1 25 Apr 12:09:46 12:14:15 66° 101° (ESE) 12:18:43 437.505/2401.250
BEESAT 3 25 Apr 12:10:06 12:14:07 55° 240° (WSW) 12:18:04 437.485
50 SAT 25 Apr 12:10:22 12:14:22 56° 286° (WNW) 12:18:18 437.505
BEESAT 2 25 Apr 12:10:54 12:15:01 66° 239° (WSW) 12:19:03 435.950
UWE-3 25 Apr 12:13:21 12:16:37 18° 296° (WNW) 12:19:43 435.000/436.395/437.385
Cosmos 2491 25 Apr 12:13:58 12:20:27 22° 280° (W) 12:26:32 435.465 / 435.565
TISAT 1 25 Apr 12:15:40 12:17:59 15° 89° (E) 12:20:29 437.305
Cosmos 2504 25 Apr 12:19:52 12:26:00 22° 80° (E) 12:32:27 435.465 / 435.565
BUGSAT 1 25 Apr 12:20:12 12:23:18 20° 267° (W) 12:26:18 437.445
ISS 25 Apr 12:23:21 12:26:27 42° 142° (SE) 12:29:34 145.825
POLYITAN 1 25 Apr 12:23:49 12:26:18 15° 271° (W) 12:28:36 437.675
FUNcube-1 25 Apr 12:24:05 12:27:10 17° 296° (WNW) 12:30:06 145.935
DUCHIFAT 1 25 Apr 12:25:22 12:27:47 14° 271° (W) 12:30:03 145.980
UKube-1 25 Apr 12:29:42 12:33:10 23° 294° (WNW) 12:36:32 .
Gurwin Techsat 1B 25 Apr 12:43:22 12:44:30 11° 56° (NE) 12:45:54 435.225
SPROUT 25 Apr 12:43:31 12:47:32 37° 97° (E) 12:51:35 437.525
HUMSAT D 25 Apr 12:47:28 12:50:24 18° 295° (WNW) 12:53:12 437.325/437.525
VELOX 1 25 Apr 12:51:32 12:55:19 27° 293° (WNW) 12:59:02 145.980
ZACube-1 25 Apr 12:51:38 12:52:09 10° 301° (WNW) 12:52:26 437.345
CUBEBUG 1 25 Apr 12:57:36 13:01:45 43° 289° (WNW) 13:05:54 437.445
AIST 2 25 Apr 13:09:13 13:13:21 51° 240° (WSW) 13:17:23 435.215
AISAT 25 Apr 13:09:48 13:12:57 19° 296° (WNW) 13:15:58 437.250
SO-50 25 Apr 13:14:55 13:19:15 34° 316° (NW) 13:23:41 436.795
Oscar 19 25 Apr 13:16:25 13:21:31 68° 73° (ENE) 13:26:42 437.125/150
YUBILEINY 25 Apr 13:22:42 13:29:31 23° 300° (WNW) 13:35:59 435.215
RS-15 25 Apr 13:33:18 13:42:06 31° 106° (ESE) 13:51:22 29.354- 29.394
ITUPSAT 1 25 Apr 13:46:24 13:50:05 22° 92° (E) 13:53:51 437.325
ESTCUBE 1 25 Apr 13:48:07 13:50:39 15° 298° (WNW) 13:53:00 437.505/2401.250
TISAT 1 25 Apr 13:50:00 13:54:09 53° 287° (WNW) 13:58:18 437.305
ITAMSAT 1 25 Apr 13:50:38 13:55:32 46° 70° (ENE) 14:00:30 435.822/435.867
ISS 25 Apr 13:59:49 14:02:52 35° 340° (NNW) 14:05:55 145.825
JAS-2 25 Apr 14:02:27 14:06:45 17° 54° (NE) 14:11:16 435.910
HORYU 2 25 Apr 14:04:50 14:05:34 10° 59° (ENE) 14:06:32 437.375
Cosmos 2504 25 Apr 14:09:37 14:18:33 85° 279° (W) 14:27:23 435.465 / 435.565
AO-7 25 Apr 14:14:57 14:21:18 26° 53° (NE) 14:27:52 29.400- 29.500
BEESAT 25 Apr 14:16:50 14:21:25 45° 99° (E) 14:25:58 436.000
Gurwin Techsat 1B 25 Apr 14:18:20 14:23:36 69° 74° (ENE) 14:28:55 435.225
SWISSCUBE 25 Apr 14:19:16 14:23:55 52° 100° (E) 14:28:33 437.505
SPROUT 25 Apr 14:20:03 14:23:26 22° 294° (WNW) 14:26:45 437.525
Oscar 19 25 Apr 14:58:16 15:01:29 16° 272° (W) 15:04:29 437.125/150
STARS 25 Apr 15:12:24 15:15:42 21° 92° (E) 15:19:05 437.465
ITUPSAT 1 25 Apr 15:23:41 15:28:11 42° 290° (WNW) 15:32:39 437.325
ITAMSAT 1 25 Apr 15:31:06 15:35:18 24° 267° (W) 15:39:24 435.822/435.867
HORYU 2 25 Apr 15:37:03 15:41:33 85° 78° (ENE) 15:46:05 437.375
ISS 25 Apr 15:37:16 15:39:51 21° 360° (N) 15:42:27 145.825
RS-15 25 Apr 15:42:38 15:53:33 77° 308° (NW) 16:04:47 29.354- 29.394
JAS-2 25 Apr 15:42:54 15:50:42 68° 72° (ENE) 15:58:14 435.910
GONETS M04 25 Apr 15:46:55 15:54:06 31° 84° (E) 16:01:34
PCSat 25 Apr 15:48:56 15:52:13 16° 35° (NE) 15:55:38 145.827
KKS-1 25 Apr 15:52:49 15:57:20 84° 104° (ESE) 16:01:50 437.445
BEESAT 25 Apr 15:55:18 15:59:00 22° 296° (WNW) 16:02:35 436.000
SWISSCUBE 25 Apr 15:57:59 16:01:27 20° 296° (WNW) 16:04:46 437.505
Gurwin Techsat 1B 25 Apr 16:00:50 16:04:12 16° 272° (W) 16:07:21 435.225
AO-7 25 Apr 16:05:01 16:13:20 82° 253° (WSW) 16:21:41 29.400- 29.500
Cosmos 2504 25 Apr 16:07:01 16:13:29 21° 301° (WNW) 16:19:30 435.465 / 435.565
MOZHAYETS 4 25 Apr 16:20:10 16:21:52 12° 86° (E) 16:23:49
CUSAT 1 25 Apr 16:37:47 16:40:12 17° 83° (E) 16:43:12 437.405
CUTE-I 25 Apr 16:41:41 16:44:08 14° 58° (ENE) 16:46:50 437.470
Cosmos 2499 25 Apr 16:46:18 16:48:16 11° 74° (ENE) 16:50:57 435.465 / 435.565
STARS 25 Apr 16:48:08 16:52:21 41° 290° (WNW) 16:56:31 437.465
VERMONT LUNAR 25 Apr 16:49:17 16:51:35 17° 155° (SSE) 16:53:56 437.305
Cubesat XI-IV 25 Apr 16:50:28 16:53:36 17° 60° (ENE) 16:56:57 437.490
ISS 25 Apr 17:13:49 17:16:51 34° 20° (NNE) 17:19:53 145.825
DANDE 25 Apr 17:15:22 17:18:20 28° 88° (E) 17:22:06 436.750
PHONESAT 2.4 25 Apr 17:16:54 17:18:25 12° 150° (SSE) 17:20:00 2401.200-2431.200
JAS-2 25 Apr 17:29:38 17:36:15 28° 270° (W) 17:42:31 435.910
PCSat 25 Apr 17:31:13 17:36:40 73° 57° (ENE) 17:42:05 145.827
KKS-1 25 Apr 17:31:38 17:33:23 12° 300° (WNW) 17:34:56 437.445
GONETS M04 25 Apr 17:41:47 17:50:28 62° 284° (WNW) 17:59:13
MOZHAYETS 4 25 Apr 17:55:08 17:59:44 72° 285° (WNW) 18:04:17
RS-15 25 Apr 17:58:33 18:08:09 32° 338° (NNW) 18:17:55 29.354- 29.394
AO-7 25 Apr 18:02:18 18:07:34 17° 274° (W) 18:12:21 29.400- 29.500
CUTE-I 25 Apr 18:18:11 18:23:31 87° 77° (ENE) 18:28:53 437.470
CUSAT 1 25 Apr 18:18:50 18:22:22 37° 291° (WNW) 18:26:58 437.405
SO-50 25 Apr 18:24:54 18:27:12 13° 28° (NNE) 18:29:37 436.795
VERMONT LUNAR 25 Apr 18:25:24 18:28:36 39° 172° (S) 18:31:48 437.305
Cubesat XI-IV 25 Apr 18:27:49 18:33:09 78° 256° (WSW) 18:38:31 437.490
Cosmos 2499 25 Apr 18:31:18 18:39:56 60° 92° (E) 18:48:22 435.465 / 435.565
PRISM 25 Apr 18:31:44 18:33:09 12° 88° (E) 18:34:49 437.425
ISS 25 Apr 18:50:09 18:53:16 44° 218° (SW) 18:56:23 145.825
PHONESAT 2.4 25 Apr 18:52:48 18:56:04 34° 166° (SSE) 18:59:22 2401.200-2431.200
DANDE 25 Apr 18:59:00 19:01:47 20° 299° (WNW) 19:05:03 436.750
M-CUBED/EXP-1 PRIME 25 Apr 19:00:34 19:04:31 37° 101° (ESE) 19:08:10 437.505
PCSat 25 Apr 19:16:02 19:19:33 17° 254° (WSW) 19:22:50 145.827
CANX-2 25 Apr 19:19:18 19:20:43 12° 62° (ENE) 19:22:20 2200.000
CUTE 1.7 + AOD 2 25 Apr 19:27:54 19:29:49 13° 63° (ENE) 19:31:55 437.475
CUBESAT XI-V 25 Apr 19:31:20 19:35:58 88° 284° (WNW) 19:40:36 437.345
STRAND 1 25 Apr 19:36:26 19:41:21 47° 99° (E) 19:46:17 437.568
AUBIESAT-1 25 Apr 19:42:51 19:47:06 82° 290° (WNW) 19:50:57 437.475
GONETS M04 25 Apr 19:45:21 19:49:43 14° 309° (NW) 19:53:33
HO-68 25 Apr 19:47:33 19:54:09 42° 64° (ENE) 20:00:51 435.675
GOMX 1 25 Apr 19:49:35 19:53:09 28° 68° (ENE) 19:56:56 467.674
BRITE-PL 25 Apr 20:01:30 20:05:34 56° 73° (ENE) 20:09:48 437.365/2234.400
CUTE-I 25 Apr 20:02:05 20:04:26 12° 274° (W) 20:06:29 437.470
VERMONT LUNAR 25 Apr 20:02:36 20:05:48 40° 188° (S) 20:09:00 437.305
SO-50 25 Apr 20:04:05 20:08:56 51° 50° (NE) 20:13:45 436.795
PRISM 25 Apr 20:05:03 20:09:07 61° 287° (WNW) 20:13:08 437.425
RS-15 25 Apr 20:15:56 20:25:03 27° 12° (NNE) 20:34:37 29.354- 29.394
COMPASS 1 25 Apr 20:18:33 20:22:10 28° 69° (ENE) 20:25:51 437.405
DOVE 4 25 Apr 20:25:33 20:29:35 43° 71° (ENE) 20:33:52 437.250
Cosmos 2499 25 Apr 20:25:39 20:33:36 34° 293° (WNW) 20:41:10 435.465 / 435.565
PHONESAT 2.4 25 Apr 20:30:33 20:34:00 46° 183° (S) 20:37:28 2401.200-2431.200
Oscar 11 25 Apr 20:33:58 20:36:58 19° 65° (ENE) 20:40:05 145.826/435.025
M-CUBED/EXP-1 PRIME 25 Apr 20:35:50 20:39:09 22° 301° (WNW) 20:42:12 437.505
ZACube-1 25 Apr 20:36:21 20:37:45 12° 60° (ENE) 20:39:22 437.345
DELFI C3 25 Apr 20:37:59 20:40:11 15° 64° (ENE) 20:42:31 145.870
SEEDS 25 Apr 20:43:22 20:47:36 64° 74° (ENE) 20:51:52 437.485
CANX-2 25 Apr 20:51:46 20:56:05 79° 257° (WSW) 21:00:26 2200.000
AAUSAT CUBESAT 2 25 Apr 21:00:28 21:04:39 69° 75° (ENE) 21:08:53 437.432
CUTE 1.7 + AOD 2 25 Apr 21:00:56 21:05:14 69° 258° (WSW) 21:09:34 437.475
DX 1 25 Apr 21:08:08 21:10:42 16° 63° (ENE) 21:13:25 434.975-435.025
CUBEBUG 2 25 Apr 21:08:41 21:12:39 35° 69° (ENE) 21:16:48 437.445
CINEMA 3 25 Apr 21:09:21 21:13:39 65° 74° (ENE) 21:18:12 145.822/145.860
CUBESAT XI-V 25 Apr 21:11:22 21:12:46 11° 300° (WNW) 21:13:57 437.345
STRAND 1 25 Apr 21:16:15 21:20:18 24° 296° (WNW) 21:24:15 437.568
Cosmos 2491 25 Apr 21:25:44 21:31:04 19° 78° (ENE) 21:36:51 435.465 / 435.565
50 SAT 25 Apr 21:25:59 21:26:31 10° 61° (ENE) 21:27:15 437.505
GOMX 1 25 Apr 21:27:40 21:31:18 27° 267° (W) 21:35:03 467.674
YUBILEINY 25 Apr 21:31:06 21:39:25 46° 72° (ENE) 21:47:44 435.215
UWE-3 25 Apr 21:34:24 21:38:39 52° 72° (ENE) 21:43:04 435.000/436.395/437.385
HO-68 25 Apr 21:35:08 21:41:55 42° 263° (W) 21:48:39 435.675
O/OREOS (USA 219) 25 Apr 21:38:13 21:41:16 18° 102° (ESE) 21:44:28 437.305
VERMONT LUNAR 25 Apr 21:40:25 21:42:50 18° 204° (SSW) 21:45:12 437.305
BRITE-PL 25 Apr 21:42:39 21:44:40 13° 273° (W) 21:46:30 437.365/2234.400
FUNcube-1 25 Apr 21:43:50 21:48:03 52° 73° (ENE) 21:52:25 145.935
SO-50 25 Apr 21:45:14 21:49:12 24° 247° (WSW) 21:53:03 436.795
UKube-1 25 Apr 21:49:30 21:53:28 38° 70° (ENE) 21:57:30 .
COMPASS 1 25 Apr 21:54:10 21:57:50 27° 266° (W) 22:01:27 437.405
HUMSAT D 25 Apr 22:03:59 22:07:58 42° 71° (ENE) 22:12:03 437.325/437.525
DOVE 4 25 Apr 22:04:41 22:07:42 18° 271° (W) 22:10:41 437.250
Oscar 11 25 Apr 22:08:39 22:12:51 46° 262° (W) 22:17:04 145.826/435.025
PHONESAT 2.4 25 Apr 22:08:49 22:11:54 27° 199° (SSW) 22:14:58 2401.200-2431.200
ZACube-1 25 Apr 22:09:07 22:13:28 84° 257° (WSW) 22:17:59 437.345
DELFI C3 25 Apr 22:10:55 22:14:56 54° 260° (W) 22:18:58 145.870
VELOX 1 25 Apr 22:14:03 22:18:00 34° 69° (ENE) 22:22:00 145.980
CUBEBUG 1 25 Apr 22:20:09 22:23:12 20° 65° (ENE) 22:26:22 437.445
SEEDS 25 Apr 22:22:00 22:23:54 12° 273° (W) 22:25:37 437.485
RS-15 25 Apr 22:29:39 22:40:48 55° 43° (NE) 22:52:29 29.354- 29.394
AISAT 25 Apr 22:31:36 22:35:52 53° 72° (ENE) 22:40:11 437.250
AAUSAT CUBESAT 2 25 Apr 22:39:28 22:40:51 11° 273° (W) 22:41:59 437.432
DX 1 25 Apr 22:42:18 22:46:33 55° 259° (W) 22:50:49 434.975-435.025
ANTELSAT 25 Apr 22:42:54 22:46:40 24° 92° (E) 22:50:28 437.575/2403.000
CUBEBUG 2 25 Apr 22:45:51 22:49:28 24° 268° (W) 22:53:06 437.445
CINEMA 3 25 Apr 22:49:24 22:51:29 13° 274° (W) 22:53:22 145.822/145.860
QB50P1 25 Apr 22:50:06 22:51:49 12° 88° (E) 22:53:45 145.935-145.965
50 SAT 25 Apr 22:56:45 23:00:45 80° 257° (WSW) 23:04:50 437.505
TISAT 1 25 Apr 23:10:01 23:12:13 14° 63° (ENE) 23:14:36 437.305
ESTCUBE 1 25 Apr 23:10:42 23:15:12 73° 75° (ENE) 23:19:43 437.505/2401.250
UWE-3 25 Apr 23:12:49 23:15:36 16° 271° (W) 23:18:16 435.000/436.395/437.385
QB50P2 25 Apr 23:14:53 23:18:20 24° 93° (E) 23:21:51 145.880/145.840
O/OREOS (USA 219) 25 Apr 23:15:54 23:20:22 49° 298° (WNW) 23:24:49 437.305
Cosmos 2491 25 Apr 23:18:04 23:26:49 89° 94° (E) 23:35:39 435.465 / 435.565
FUNcube-1 25 Apr 23:22:01 23:24:48 16° 271° (W) 23:27:26 145.935
UKube-1 25 Apr 23:26:27 23:29:47 21° 267° (W) 23:33:02 .
YUBILEINY 25 Apr 23:28:09 23:36:14 42° 273° (W) 23:44:07 435.215
TIGRISAT 25 Apr 23:32:27 23:37:12 72° 102° (ESE) 23:41:51 435.000
NANOSAT C BR1 25 Apr 23:32:36 23:36:32 35° 96° (E) 23:40:29 145.865
POPSAT HIP 1 25 Apr 23:35:48 23:39:49 38° 97° (E) 23:43:51 437.405
UNISAT 6 25 Apr 23:36:49 23:41:35 82° 102° (ESE) 23:46:15 437.425
SPROUT 25 Apr 23:39:14 23:43:05 35° 70° (ENE) 23:47:01 437.525
HUMSAT D 25 Apr 23:40:58 23:43:59 18° 270° (W) 23:46:55 437.325/437.525
VELOX 1 25 Apr 23:51:01 23:54:39 24° 266° (W) 23:58:13 145.980
CUBEBUG 1 25 Apr 23:55:11 23:59:19 42° 262° (W) 00:03:26 437.445
BUGSAT 1 25 Apr 23:59:36 00:03:37 47° 99° (E) 00:07:41 437.445
Cosmos 2504 26 Apr 00:01:47 00:09:15 39° 69° (ENE) 00:16:18 435.465 / 435.565
POLYITAN 1 26 Apr 00:05:27 00:09:47 82° 103° (ESE) 00:14:07 437.675
DUCHIFAT 1 26 Apr 00:06:16 00:10:35 81° 104° (ESE) 00:14:52 145.980
AISAT 26 Apr 00:10:08 00:12:51 16° 270° (W) 00:15:26 437.250
ANTELSAT 26 Apr 00:19:11 00:23:36 39° 290° (WNW) 00:27:55 437.575/2403.000
QB50P1 26 Apr 00:23:56 00:28:12 64° 286° (WNW) 00:32:26 145.935-145.965
AIST 1 26 Apr 00:32:20 00:36:20 40° 93° (E) 00:40:23
RS-15 26 Apr 00:42:20 00:53:27 54° 246° (WSW) 01:04:54 29.354- 29.394
TISAT 1 26 Apr 00:43:28 00:47:36 58° 259° (W) 00:51:45 437.305
QB50P2 26 Apr 00:50:25 00:54:19 33° 290° (WNW) 00:58:10 145.880/145.840
ESTCUBE 1 26 Apr 00:50:55 00:52:41 12° 273° (W) 00:54:12 437.505/2401.250
ITUPSAT 1 26 Apr 00:54:36 00:58:47 32° 68° (ENE) 01:03:03 437.325
NANOSAT C BR1 26 Apr 01:08:48 01:12:14 23° 293° (WNW) 01:15:34 145.865
TIGRISAT 26 Apr 01:10:43 01:13:24 15° 298° (WNW) 01:15:54 435.000
POPSAT HIP 1 26 Apr 01:12:10 01:15:30 22° 294° (WNW) 01:18:45 437.405
UNISAT 6 26 Apr 01:15:28 01:17:45 13° 299° (WNW) 01:19:50 437.425
SPROUT 26 Apr 01:15:54 01:19:18 22° 267° (W) 01:22:38 437.525
Cosmos 2491 26 Apr 01:18:35 01:25:08 22° 301° (WNW) 01:31:22 435.465 / 435.565
KKS-1 26 Apr 01:19:38 01:20:43 11° 60° (ENE) 01:22:03 437.445
BEESAT 26 Apr 01:24:40 01:29:23 62° 73° (ENE) 01:34:07 436.000
SWISSCUBE 26 Apr 01:27:11 01:31:56 71° 75° (ENE) 01:36:43 437.505
Oscar 19 26 Apr 01:27:13 01:31:06 21° 91° (E) 01:35:06 437.125/150
BUGSAT 1 26 Apr 01:36:03 01:38:47 17° 295° (WNW) 01:41:25 437.445
POLYITAN 1 26 Apr 01:43:39 01:45:08 11° 299° (WNW) 01:46:24 437.675
DUCHIFAT 1 26 Apr 01:44:22 01:45:51 11° 299° (WNW) 01:47:06 145.980
GONETS M04 26 Apr 01:54:55 02:00:03 17° 54° (NE) 02:05:37
Cosmos 2504 26 Apr 01:55:15 02:02:49 44° 272° (W) 02:09:48 435.465 / 435.565
ITAMSAT 1 26 Apr 02:03:27 02:05:58 14° 87° (E) 02:08:46 435.822/435.867
BEESAT 3 26 Apr 02:05:32 02:08:17 18° 113° (ESE) 02:11:10 437.485
BEESAT 2 26 Apr 02:07:36 02:10:04 16° 112° (ESE) 02:12:41 435.950
STARS 26 Apr 02:11:00 02:14:23 23° 66° (ENE) 02:17:53 437.465
AIST 1 26 Apr 02:11:08 02:14:14 19° 291° (WNW) 02:17:13
ITUPSAT 1 26 Apr 02:32:25 02:36:41 31° 265° (W) 02:40:54 437.325
Gurwin Techsat 1B 26 Apr 02:33:36 02:37:51 24° 92° (E) 02:42:11 435.225
KKS-1 26 Apr 02:52:18 02:56:44 89° 235° (SW) 03:01:13 437.445
BEESAT 26 Apr 03:04:47 03:07:43 16° 271° (W) 03:10:28 436.000
Oscar 19 26 Apr 03:05:44 03:10:48 51° 289° (WNW) 03:15:49 437.125/150
SWISSCUBE 26 Apr 03:07:56 03:10:24 13° 272° (W) 03:12:37 437.505
AIST 2 26 Apr 03:09:04 03:12:22 23° 114° (ESE) 03:15:49 435.215
